Regional Weather Roundup
Issued by NWS Newport/Morehead, NC

Current Version | Previous Version | Graphics & Text | Print | Product List | Glossary Off
Versions: 1 2 3 4 5 6 7 8 9 10 11 12 13 14 15 16 17 18 19 20 21 22 23 24 25 26 27 28 29 30 31 32 33 34 35 36 37 38 39 40 41 42 43 44 45 46 47 48 49 50
000 ASUS42 KMHX 261022 RWRMHX WEATHER ROUNDUP FOR EASTERN NORTH CAROLINA NATIONAL WEATHER SERVICE NEWPORT/MOREHEAD CITY NC 500 AM EST WED NOV 26 2014 NOTE: "FAIR" INDICATES FEW OR NO CLOUDS BELOW 12,000 FEET WITH NO SIGNIFICANT WEATHER AND/OR OBSTRUCTIONS TO VISIBILITY NCZ015>017-031-032-045>047-102-103-261100- NORTH COAST CITY SKY/WX TMP DP RH WIND PRES REMARKS EDENTON CLOUDY 55 55 99 NE16G23 29.87F ELIZABETH CITY LGT RAIN 57 54 88 NE22G30 29.89F KITTY HAWK CLOUDY 61 61 99 NE7G16 29.85F FOG MANTEO CLOUDY 61 60 97 NE8 29.86F $$ NCZ045>047-081-094-103-104-261100- CENTRAL COAST CITY SKY/WX TMP DP RH WIND PRES REMARKS FRISCO CLOUDY 66 66 100 E12 29.82F FOG SWANQUARTER N/A 63 N/A N/A NE8 29.79S $$ NCZ095-097-098-100-101-261100- SOUTHERN COAST CITY SKY/WX TMP DP RH WIND PRES REMARKS BEAUFORT CLOUDY 61 61 100 NE5 29.79F FOG CEDAR ISLAND N/A 57 N/A N/A NE8 29.85S JACKSONVILLE CLOUDY 61 60 97 E7 29.78F FOG PINEY ISLAND FOG 61 58 90 NE6 29.81F VSB 1 WILMINGTON CLOUDY 66 65 96 E7 29.74F $$ NCZ011>013-027>030-043-044-078>080-089-090>093-098-261100- COASTAL PLAIN CITY SKY/WX TMP DP RH WIND PRES REMARKS AHOSKIE RAIN 48 47 93 N20G30 29.90F CLINTON LGT RAIN 55 55 100 NE10G20 29.77F ELIZABETHTOWN RAIN 55 55 100 NW8 29.78R GOLDSBORO RAIN 53 53 99 NE15 29.78F FOG GREENVILLE DRIZZLE 54 54 100 NE7 29.86F HAVELOCK FOG 61 59 93 E6 29.82F VSB 1/2 KENANSVILLE CLOUDY 58 57 98 NE3 29.78F FOG KINSTON LGT RAIN 56 56 99 NE13 29.81F NEW BERN CLOUDY 62 59 90 E9 29.81F FOG RICHLANDS CLOUDY 61 57 88 NE6 29.78F ROCKY MOUNT RAIN 51 49 92 N17G25 29.85F FOG WASHINGTON CLOUDY 56 55 98 NE7 29.82F WHITEVILLE LGT RAIN 57 55 94 NW5 29.75S $$ AMZ130-135-150-152-154-156-158-170-250-252-270-ANZ085-086-088-633-658-670-261100- MARINE OBSERVATIONS STATION/POSITION TIME TEMP WIND PRES WAVE SWELL AIR SEA DIR/SP/G HT/PER HT/PER (UTC) (F) (DEG/KT/KT) (MB) (FT/S) (FT/S) CHESAPEAKE LIGHT 1000 50 40/ 30/ 34 1013.5 64 E VA BEACH 1000 60 65 60/ 25/ 31 1011.6 7/ 6 2/ 9 DUCK 1000 59 58 50/ 23/ 27 1010.5 2 E DUCK 1000 58 N/A 5/ 5 2/11 10 NE DUCK 1000 59 N/A 6/ 5 OREGON INLET 1000 63 57 40/ 11/ 14 1010.6 13E OREGON INLT 1000 62 N/A 5/ 8 2/11 HATTERAS CG 1000 67 62 110/ 10/ 14 1010.0 DIAMOND BUOY 1000 70 120/ 17/ 21 1009.3 5/ 9 3/ 9 17 S OCRACOKE NOT AVBL CAPE LOOKOUT 1000 68 130/ 13/ 14 1008.6 BEAUFORT LAB 1000 61 59 10/ 4/ 4 1008.2 30 SE NEW RIVER 1000 73 68 160/ 19/ 23 1007.9 6/ 5 2/ 9 5 SE WRIGHTSVLE 1000 62 59 160/ 10/ 12 1006.6 225 S CAPE HAT 0935 75 73 190/ 19/ 23 1014.6 6/ 7 41 SE CHARLESTON 1000 76 75 180/ 27/ 35 1006.2 9/ 7 2/15 $$

USA.gov is the U.S. government's official web portal to all federal, state and local government web resources and services.